Theta_e
311 312 312 313 313 312 314 315 314 312 311 310 310 310 310 311 310 309 310 311 310 311 312 313 314 314 314 316 314 312 321 335 340 339 341 342 343 342 341 342 341 341 342 341 342 342 342 340 336 333 331 331 332 333 334 336 336 336 336 335 336 337 335 334 335 334 334 333 332 331 330 330 329 329 329 328 326 326 327 328 327 326 326 327 328 328
311 313 314 313 314 315 317 317 314 313 311 310 311 311 311 310 310 310 310 310 310 311 313 314 313 315 316 315 315 315 317 330 339 339 340 340 342 342 340 341 341 341 341 342 343 343 342 343 341 338 336 335 336 335 335 336 336 336 336 336 335 336 335 334 334 334 334 334 332 330 329 329 328 327 327 326 326 327 327 327 326 326 327 328 328 328
312 314 314 313 313 316 317 315 313 313 312 311 310 311 312 311 310 311 311 311 310 311 313 314 313 315 317 316 317 319 319 326 334 338 340 340 340 341 340 340 341 340 340 341 343 343 342 343 343 341 339 338 338 337 336 336 336 336 336 336 335 335 334 334 334 334 334 333 331 330 328 328 328 326 326 326 325 325 326 325 325 326 328 328 328 327
313 313 313 312 313 315 315 314 313 313 312 311 311 311 312 311 310 312 313 312 311 312 314 314 314 315 317 320 322 324 324 325 327 330 336 340 340 341 340 340 340 340 339 341 342 342 343 343 342 342 341 340 338 336 336 336 335 336 336 335 335 335 335 334 334 334 334 332 331 330 328 328 328 326 325 325 325 326 326 326 327 327 328 327 327 327
314 311 309 311 312 313 314 313 313 312 312 312 313 312 311 311 311 312 312 312 312 314 315 313 314 315 317 323 325 326 327 328 326 325 331 338 339 339 340 339 340 340 339 340 341 342 342 342 341 341 341 340 338 336 335 335 335 335 335 335 335 334 335 334 334 334 333 332 330 330 328 328 328 326 325 326 326 326 327 327 327 327 327 326 326 327
314 311 309 310 311 311 312 312 312 312 312 313 313 312 311 311 312 311 311 311 312 314 315 314 314 315 317 322 325 326 327 328 328 325 326 335 338 338 338 338 339 339 339 340 341 341 340 339 340 340 340 339 338 336 334 334 335 335 335 335 334 334 335 334 334 334 333 331 330 329 328 328 328 326 325 326 325 325 327 327 326 326 326 326 326 327
312 310 310 312 312 310 310 311 311 312 311 311 314 314 312 311 312 312 311 311 312 314 315 314 314 315 316 319 324 326 327 327 328 327 327 332 336 337 337 337 338 339 338 339 340 340 339 339 339 340 339 338 338 336 335 335 335 335 335 334 334 334 334 335 334 333 332 331 330 329 327 327 327 325 325 325 325 326 327 326 325 324 325 325 325 326
312 310 311 312 313 311 311 312 311 311 311 312 316 315 311 310 312 311 311 311 312 314 315 313 314 315 315 318 324 326 328 327 327 328 328 332 335 336 336 336 338 339 338 339 339 339 338 339 339 339 338 338 338 337 336 335 335 335 334 332 333 334 334 334 334 333 332 330 329 328 328 327 326 326 325 325 325 327 326 325 324 324 324 324 324 325
313 313 313 312 311 311 311 313 312 310 311 313 315 313 310 311 311 311 312 313 313 314 315 314 314 314 314 317 323 326 327 328 327 327 328 332 334 336 336 336 337 338 338 338 338 338 338 337 338 338 337 337 338 337 335 335 334 334 333 330 331 333 334 334 333 332 331 330 329 328 327 327 327 327 326 325 326 326 325 325 324 324 324 325 324 325
311 312 312 311 311 312 312 312 311 310 311 312 312 310 310 311 312 312 312 313 314 315 316 316 315 314 314 317 324 326 327 327 327 327 328 331 334 335 336 336 336 336 337 337 336 335 335 335 336 336 335 336 337 336 334 335 334 333 332 330 331 333 333 333 332 332 330 330 328 326 325 326 327 327 326 326 327 326 325 325 324 324 325 325 324 323
310 309 310 310 311 312 311 310 309 310 311 311 311 311 311 312 312 313 313 313 314 315 315 315 316 315 313 316 323 326 326 326 325 326 328 330 333 333 332 332 332 333 334 335 334 333 333 333 333 332 332 334 335 334 333 335 335 334 333 331 331 332 332 332 332 331 330 329 326 324 325 326 325 326 326 327 328 326 326 325 324 324 324 322 321 319
310 309 309 310 311 310 310 309 308 309 309 310 312 312 312 313 313 313 313 313 314 316 315 312 314 315 313 317 323 325 325 324 325 326 326 328 332 331 330 330 330 330 332 332 330 329 328 328 327 328 330 331 332 333 333 335 336 336 334 331 331 332 332 332 330 329 329 328 326 326 326 324 323 325 326 328 328 327 326 324 322 322 320 320 319 317
312 311 311 310 311 310 310 310 309 309 309 310 311 312 313 314 314 314 314 314 315 316 314 312 313 315 314 319 325 326 326 326 327 326 326 328 331 329 328 329 329 329 330 330 328 327 327 328 327 328 331 330 331 332 332 334 336 335 333 331 331 332 331 330 328 328 329 326 326 327 324 321 323 325 325 326 327 326 324 322 320 319 318 317 316 314
313 313 311 310 311 311 311 311 311 311 310 310 311 312 314 314 314 314 314 314 314 315 314 313 314 316 317 322 325 326 326 327 328 327 327 328 330 329 328 328 328 327 327 327 327 327 327 329 328 329 331 330 331 333 333 332 334 334 331 331 332 330 329 330 327 328 328 325 324 324 321 321 325 325 324 324 325 324 322 320 319 318 317 315 315 314
314 313 312 311 312 312 311 312 313 312 311 311 311 312 314 315 315 315 314 315 314 315 317 315 314 317 321 324 325 327 328 328 329 328 328 329 329 329 328 328 328 328 328 327 327 327 328 329 328 329 330 329 331 333 334 332 332 332 331 330 330 327 327 329 328 328 327 322 320 319 320 324 325 324 323 323 323 322 321 319 319 318 316 316 317 317
312 313 313 311 310 310 311 312 312 312 312 311 310 311 313 315 316 315 314 315 315 316 317 316 316 320 322 322 324 328 328 328 329 329 329 329 328 329 329 328 328 328 329 328 328 328 328 328 329 328 328 329 331 333 333 333 332 330 330 330 328 325 327 329 329 328 324 319 319 319 321 326 326 324 322 321 321 321 320 318 317 318 318 319 320 319
311 313 314 311 309 309 311 311 311 311 313 311 310 313 313 312 317 317 313 313 314 315 316 317 322 324 322 322 324 326 327 326 328 329 328 328 328 328 329 329 330 329 328 328 329 328 327 328 330 330 328 329 331 331 331 332 333 330 329 329 329 328 328 330 330 328 324 321 321 321 323 326 327 326 323 320 320 320 319 319 319 320 320 320 321 318
312 314 315 312 311 310 309 310 311 310 311 312 312 314 312 311 315 317 315 314 314 315 316 319 325 327 324 324 325 325 326 326 326 327 327 327 327 328 329 329 330 329 329 329 328 328 328 328 330 331 330 329 329 329 329 330 331 330 329 330 330 329 329 330 329 328 327 325 323 323 325 327 328 327 324 321 319 318 319 319 320 321 320 319 318 315
312 313 315 312 311 311 310 310 312 311 310 311 313 313 313 314 315 314 315 316 315 315 316 318 322 324 323 325 326 325 325 326 326 325 325 326 326 327 328 329 329 329 329 330 329 328 328 327 328 331 331 330 329 328 328 329 329 329 329 329 330 330 329 329 328 328 328 326 324 324 326 327 328 328 326 322 320 319 320 320 320 321 319 317 314 314
312 314 315 313 310 311 312 313 314 313 312 311 312 312 313 315 316 315 315 316 316 315 316 318 322 323 322 322 324 325 324 325 326 325 325 325 326 326 327 327 327 328 329 330 329 327 326 327 327 329 330 330 330 329 328 328 328 328 329 330 330 330 329 328 327 328 327 326 325 325 327 328 328 329 326 323 322 322 322 321 320 320 319 316 313 313
314 313 314 314 311 311 314 315 314 314 314 313 314 314 315 315 314 315 315 314 315 316 316 317 320 322 321 320 322 324 323 324 325 324 324 324 324 325 325 325 325 326 327 328 328 325 325 327 327 327 328 329 330 329 328 328 328 328 329 329 329 329 329 329 329 329 327 326 326 326 327 327 328 328 326 323 323 324 324 321 319 319 317 314 313 312
314 313 315 315 314 314 315 314 313 313 313 313 315 315 315 315 315 315 315 313 314 316 316 317 317 320 320 320 322 322 322 323 323 323 324 323 323 324 324 325 325 325 325 326 327 326 325 326 325 326 327 327 328 329 330 329 328 328 329 329 329 328 328 329 329 328 327 326 326 327 327 327 327 328 325 324 324 324 324 321 319 319 316 313 313 312
317 316 315 315 314 314 314 311 310 312 312 312 315 314 313 315 316 315 315 315 316 315 315 316 316 319 321 320 322 322 322 323 322 323 323 322 323 324 324 325 325 324 325 325 326 326 325 325 325 326 327 326 327 329 330 330 328 328 329 329 328 327 327 329 328 328 328 327 327 328 327 326 326 326 325 324 325 324 324 321 319 319 315 312 313 312
320 318 315 314 314 314 313 310 309 310 312 315 316 314 314 315 315 315 316 317 318 317 317 317 316 321 322 321 322 323 322 322 322 322 323 323 324 324 324 325 324 324 324 324 324 324 324 326 326 327 327 327 328 328 329 330 328 327 327 329 329 328 328 328 328 328 328 328 328 328 327 327 326 325 325 326 325 324 322 320 319 318 315 312 311 310
317 318 317 315 316 316 315 315 313 313 314 316 316 314 314 314 313 314 316 317 318 317 318 317 316 322 323 322 322 322 321 321 321 320 321 321 321 321 322 322 323 323 323 323 324 324 324 325 326 326 327 327 328 328 327 327 328 326 325 326 327 327 328 328 328 328 327 327 328 327 326 325 325 326 326 326 325 322 320 319 319 318 315 311 310 309
317 320 319 316 317 317 317 318 316 315 315 315 314 313 313 313 315 316 317 316 316 316 317 317 318 322 323 322 323 322 320 319 319 318 318 318 318 318 318 319 321 321 322 323 323 324 324 324 325 326 326 326 327 327 325 323 325 326 324 324 326 327 328 328 328 328 326 326 326 325 323 324 325 326 327 325 323 321 319 319 319 318 315 311 309 309
320 319 318 319 319 317 315 315 313 314 317 317 316 314 313 312 313 315 315 315 316 316 317 319 322 324 324 323 323 322 318 318 317 316 316 315 315 315 315 316 319 320 322 323 323 323 324 324 324 324 325 326 326 326 324 321 323 326 326 326 327 328 328 328 328 328 327 326 326 324 323 324 326 326 325 325 323 320 320 320 319 317 316 314 311 310
323 318 315 317 318 315 314 313 311 312 316 316 315 315 314 313 314 317 317 318 317 316 317 320 321 325 325 322 322 320 316 316 315 314 314 313 313 314 314 316 318 319 320 322 322 323 323 323 323 323 323 324 324 324 324 323 324 326 326 327 327 327 327 327 327 327 327 326 326 325 324 325 325 325 324 324 322 320 321 321 319 318 318 317 314 310
321 317 314 315 316 315 313 313 312 312 311 310 312 314 315 315 318 321 320 315 315 318 319 321 322 324 323 319 318 316 314 314 313 312 312 311 312 313 314 315 315 315 317 319 319 321 323 323 323 323 323 323 323 324 324 325 325 325 325 326 326 326 326 326 325 326 325 325 324 323 322 322 324 323 323 323 322 321 322 322 320 318 318 318 317 311
316 314 313 314 315 314 314 313 312 312 311 310 311 313 315 316 317 319 319 316 317 320 321 320 321 320 317 315 313 312 312 311 311 310 311 310 310 310 311 311 311 311 314 316 317 319 321 322 322 323 323 323 323 323 324 324 324 324 324 324 324 324 325 325 324 325 324 324 324 321 319 320 323 323 323 323 322 321 322 322 321 319 318 318 319 315
315 313 313 316 316 315 314 313 313 313 313 313 312 312 314 316 317 317 318 317 319 321 319 318 318 315 313 312 311 310 310 309 309 309 309 308 308 308 308 308 308 308 310 312 314 317 319 320 321 321 322 322 323 323 323 323 324 323 323 323 323 323 323 324 324 324 324 324 324 322 320 321 323 323 322 322 322 321 321 321 320 319 319 318 319 318
316 312 312 316 316 315 315 314 313 314 315 315 314 312 312 314 316 316 315 315 318 320 319 318 318 315 312 311 310 310 309 309 308 308 307 306 306 306 306 306 306 307 306 307 310 315 317 318 320 321 321 322 322 322 322 322 323 323 323 323 323 323 323 323 323 323 324 324 323 323 322 322 322 322 321 321 320 319 319 319 317 317 318 318 318 318
316 313 312 315 316 315 315 315 314 315 317 317 314 311 310 311 313 314 314 314 316 318 319 319 317 313 311 310 310 309 309 308 307 306 306 305 305 304 304 304 304 305 304 303 306 312 316 317 319 320 320 321 321 321 322 322 322 322 322 322 323 323 323 323 323 323 323 323 323 322 322 321 321 321 321 319 318 317 316 317 316 316 317 318 318 318
315 316 314 315 316 316 315 315 315 317 318 316 311 309 309 310 312 314 313 313 314 315 315 315 313 311 311 310 309 308 308 307 306 306 305 304 304 304 303 303 303 303 303 302 303 308 314 315 316 318 319 319 320 320 320 321 321 321 321 321 321 321 322 322 322 322 322 322 322 322 322 322 321 321 320 320 319 318 318 318 317 317 318 318 319 319
315 315 313 313 315 315 314 314 316 318 316 312 309 308 309 309 310 312 311 311 312 313 312 312 311 310 309 308 307 307 306 305 305 305 304 304 304 304 304 304 303 303 303 302 301 303 306 309 313 317 318 317 318 319 320 320 320 320 320 320 320 320 321 321 321 321 322 322 322 322 321 322 322 320 320 320 320 320 320 320 320 320 320 319 319 319
314 313 312 311 313 314 313 313 315 315 311 309 308 308 307 308 309 311 311 310 310 311 311 310 309 308 307 307 306 305 305 304 304 303 304 304 304 305 305 305 305 304 304 303 303 303 303 305 309 313 314 315 316 317 317 317 318 319 319 319 320 320 320 320 320 320 321 321 321 321 321 321 322 321 320 319 320 320 320 321 320 320 320 320 320 319
312 313 313 312 311 312 313 312 313 313 312 309 308 306 306 306 307 309 311 310 308 309 309 308 307 307 306 306 305 304 304 304 303 302 302 303 304 305 305 305 305 305 305 305 305 305 304 303 304 306 309 311 313 314 314 313 315 317 317 317 318 318 318 319 318 319 319 319 319 320 321 320 320 320 320 320 320 320 320 321 320 320 320 320 320 320
310 312 314 314 311 310 313 313 313 314 314 310 307 305 305 306 305 306 309 310 308 308 308 307 306 306 306 306 305 305 305 305 303 301 301 302 303 305 306 306 305 305 305 305 306 306 306 306 305 305 306 306 307 308 308 309 313 315 314 313 314 315 316 316 316 316 317 318 318 318 319 319 319 319 319 319 319 319 320 320 320 320 319 320 320 320
308 308 311 312 311 310 312 313 312 313 312 308 305 304 304 305 304 306 311 312 308 307 307 306 305 305 306 306 306 306 306 305 302 301 299 299 301 303 305 305 305 306 306 306 306 306 305 305 305 306 306 306 305 305 306 307 309 310 309 308 308 309 309 309 310 311 312 313 315 315 316 317 318 318 318 318 319 319 319 319 320 320 320 320 320 320
306 307 309 310 309 308 310 311 310 310 308 305 303 304 304 304 305 309 315 314 308 307 307 306 305 305 305 305 305 306 306 304 301 300 299 298 299 300 300 301 302 303 304 304 305 305 304 304 304 305 305 304 302 303 305 306 307 306 305 304 305 305 304 303 303 304 306 307 309 311 312 313 314 315 315 315 316 317 317 317 317 318 318 319 319 320
305 305 306 306 305 305 307 309 309 308 305 303 303 303 303 305 309 313 314 310 307 307 307 306 306 305 304 304 304 304 304 302 300 299 298 298 297 297 297 297 297 298 298 299 301 302 302 302 302 301 301 300 299 299 301 304 306 306 305 305 305 304 301 301 301 302 303 304 305 306 308 309 310 310 311 311 311 312 314 315 315 315 316 316 317 317
304 304 304 304 304 303 304 307 309 307 303 302 303 303 304 308 312 310 306 304 305 307 306 305 305 304 303 303 303 302 301 300 299 298 297 297 297 296 296 296 296 297 297 297 297 298 299 299 298 298 297 298 298 298 298 300 302 303 304 306 305 303 302 302 302 303 303 304 305 305 306 306 306 307 308 308 308 309 310 311 311 312 313 314 314 315
303 304 304 304 303 303 304 307 309 308 303 302 304 304 304 307 308 304 301 303 305 306 304 304 303 303 303 302 301 300 300 299 298 297 297 296 296 296 297 297 297 297 297 297 297 297 297 297 297 297 296 296 296 296 296 297 298 299 301 303 302 301 301 301 302 302 303 304 306 306 307 307 307 307 307 307 308 308 308 309 309 309 310 311 311 312
303 303 304 303 303 305 307 307 306 305 303 302 304 304 303 303 303 301 301 302 303 303 303 302 302 302 303 301 300 299 299 298 297 297 296 296 297 297 297 297 297 297 297 297 296 296 296 296 296 296 296 295 295 295 295 296 296 296 298 299 298 298 298 299 299 300 301 302 303 304 305 305 306 306 306 306 307 307 307 307 308 308 308 309 309 310
304 303 304 304 303 304 305 304 303 303 302 302 303 302 302 301 301 301 301 301 301 302 302 301 300 301 300 299 299 298 298 297 297 297 297 297 297 297 297 297 297 297 296 296 296 295 296 296 295 295 295 295 295 295 295 295 295 295 296 296 296 296 296 296 297 297 298 298 299 300 300 301 301 302 303 303 304 304 305 305 306 306 306 306 306 307
303 303 304 304 303 303 303 302 302 302 302 302 302 302 301 301 300 301 301 300 300 301 301 301 300 299 299 299 298 298 298 298 298 298 298 297 297 297 297 297 297 296 296 296 295 295 295 295 295 295 295 295 295 295 295 295 295 295 295 295 295 295 296 295 296 296 296 297 297 297 297 297 298 298 299 299 300 301 301 301 302 303 303 303 303 303
303 303 303 303 303 304 303 302 301 301 302 302 301 301 301 300 300 300 300 299 299 300 300 300 300 299 299 299 298 298 298 298 298 298 298 298 297 297 297 297 296 296 296 295 295 295 295 295 295 294 294 294 294 295 295 295 295 295 295 295 295 295 295 295 295 296 296 296 296 296 296 296 296 296 296 296 297 297 297 297 298 298 299 299 300 300
302 303 303 303 303 303 303 302 301 302 302 302 302 301 300 300 300 300 300 300 300 300 300 300 300 300 299 299 299 299 299 299 299 298 298 297 297 297 296 296 296 295 295 295 295 295 295 294 294 293 293 293 294 295 295 295 295 295 295 295 295 295 295 296 296 296 296 296 296 296 296 296 296 296 296 296 296 296 296 296 296 296 296 296 297 297
301 302 302 303 303 302 302 301 301 302 302 302 302 302 301 301 301 301 301 301 301 301 301 300 300 301 300 300 300 300 300 300 299 299 298 297 297 296 296 296 295 295 295 295 295 295 294 293 292 292 292 293 294 294 294 294 295 295 295 295 296 296 296 296 296 296 296 296 296 296 296 296 296 296 296 296 296 296 296 296 296 296 296 296 296 296
302 303 302 303 303 302 302 302 302 302 302 301 302 302 301 302 302 301 301 300 300 300 300 299 300 300 300 300 300 300 300 300 299 299 298 297 296 296 295 295 295 295 295 295 295 294 292 291 291 292 293 294 294 294 294 294 295 295 295 296 296 296 296 296 296 296 296 296 296 296 296 296 296 296 296 296 296 296 296 296 296 296 296 296 296 296
301 302 302 302 303 302 302 302 301 301 302 301 301 302 302 302 302 301 300 299 299 299 299 299 299 300 300 300 300 300 300 299 299 298 297 296 296 296 295 295 295 295 295 294 293 292 291 291 292 293 294 294 294 294 294 295 295 295 295 296 296 296 296 296 296 296 296 296 296 296 296 296 296 296 296 296 296 296 296 296 296 296 296 296 296 296
Wind_Speed
6 4 4 6 5 5 5 6 5 3 3 2 1 2 3 4 3 1 4 6 2 3 7 7 6 6 10 7 3 4 5 10 13 16 18 20 22 23 25 24 21 23 28 27 25 24 23 26 30 29 29 26 24 22 18 13 12 14 16 17 19 19 19 18 18 17 17 16 16 16 16 16 17 18 20 21 19 18 16 15 13 12 12 11 10 9
5 6 6 5 5 5 5 6 5 3 3 2 3 3 4 4 3 3 6 6 2 4 6 4 4 8 9 6 4 5 4 10 16 18 19 22 22 23 25 25 22 19 23 26 26 26 24 25 27 29 29 25 23 20 17 15 13 14 16 16 18 19 18 18 18 18 17 16 16 15 15 17 19 19 19 19 18 16 16 15 14 13 12 11 11 10
4 6 6 5 5 5 4 4 5 4 4 3 2 3 4 2 2 4 5 4 1 4 4 2 4 9 8 4 4 5 5 8 14 17 20 23 24 25 25 25 23 19 23 27 27 28 26 24 26 27 26 22 19 17 14 14 14 15 17 17 18 19 20 20 20 20 19 16 15 14 14 17 19 18 17 17 16 15 15 15 14 13 12 11 10 10
4 5 5 7 6 6 4 3 5 3 3 3 3 4 4 0 1 4 2 1 1 4 5 4 5 8 6 2 3 5 5 7 10 14 18 21 24 26 26 26 25 23 28 30 27 29 29 25 26 25 23 20 16 14 13 13 14 15 17 18 19 20 21 21 21 22 19 16 16 16 15 17 19 19 18 16 15 15 14 14 13 12 11 11 11 10
4 1 4 7 7 7 4 4 5 4 3 3 5 6 4 2 5 7 2 3 3 4 4 5 6 6 3 2 3 4 4 7 8 12 17 22 24 23 22 23 24 24 27 27 24 26 27 24 24 23 22 20 16 13 13 13 14 16 17 19 20 21 21 22 23 23 20 18 19 19 19 19 20 21 19 17 15 14 14 13 13 12 12 12 11 11
5 3 8 7 4 6 5 4 6 6 4 3 5 8 8 8 10 7 0 3 4 3 2 2 5 3 1 4 5 2 4 6 5 9 16 21 23 22 20 20 23 22 22 23 20 20 21 21 22 22 20 19 16 13 12 13 14 17 18 19 20 21 22 23 24 23 20 19 20 20 20 20 22 23 19 15 13 13 13 13 13 12 12 11 11 11
3 5 8 6 5 6 5 4 5 6 4 3 4 9 12 11 9 5 3 2 3 2 1 1 4 4 3 5 4 3 6 7 4 6 11 16 20 21 20 19 20 19 19 21 18 14 17 20 21 21 19 18 16 14 12 12 14 17 18 20 21 22 23 24 23 22 20 19 17 17 17 18 21 21 18 14 12 12 13 13 13 12 11 11 10 10
2 6 6 5 5 5 5 5 5 8 5 2 2 7 9 9 8 7 6 5 3 2 1 1 2 4 5 3 1 4 7 6 3 3 5 10 15 16 16 15 16 16 15 17 17 15 17 20 20 19 19 18 16 15 13 12 14 16 17 20 22 23 23 24 23 21 20 17 17 16 16 17 18 18 16 14 13 13 13 13 13 12 11 11 10 10
3 6 8 8 6 4 5 5 6 10 7 3 2 5 6 7 6 6 6 5 2 3 3 3 3 4 4 2 1 3 6 4 2 2 2 5 10 12 11 10 12 13 10 11 15 17 17 17 17 18 18 17 17 17 14 13 14 14 16 17 19 22 23 24 22 21 19 17 16 17 16 17 18 17 15 14 14 14 13 13 13 12 11 11 11 11
2 5 9 9 7 6 7 5 9 13 7 1 5 4 3 3 3 3 4 3 3 3 4 4 4 4 3 2 2 2 3 4 5 5 2 1 4 6 4 4 7 10 11 11 13 13 12 13 14 15 15 15 18 16 13 14 13 13 14 15 18 21 22 22 21 20 19 18 17 17 17 17 18 16 14 14 14 14 13 13 13 12 12 11 11 10
2 0 4 5 6 5 5 4 7 11 5 4 6 4 4 3 2 2 1 1 3 5 3 5 6 5 2 1 1 1 3 4 5 5 3 1 3 4 7 9 9 10 12 10 6 6 6 6 6 7 9 12 14 12 14 15 15 14 14 15 18 20 21 21 20 21 20 19 17 16 16 16 16 16 14 15 15 14 14 13 13 13 12 11 11 10
2 0 1 4 6 3 3 3 3 3 2 2 2 2 2 2 2 2 1 1 4 4 0 3 5 5 4 1 2 3 6 6 6 6 4 3 6 8 9 11 12 12 14 13 10 9 5 3 2 4 6 9 11 12 14 15 18 19 15 13 17 20 20 19 18 21 20 17 16 16 16 16 15 13 13 13 14 14 14 14 14 14 13 11 10 10
2 4 2 3 5 6 4 2 2 2 3 3 2 2 3 2 2 2 2 2 4 3 1 1 3 3 4 0 4 6 8 8 8 6 6 5 8 11 12 13 11 9 12 15 14 10 5 5 8 7 6 9 12 13 13 15 19 19 14 12 17 19 19 17 18 21 20 18 17 16 15 14 13 12 12 12 12 13 14 14 14 13 12 11 11 12
3 3 2 2 3 8 8 5 4 3 5 7 5 5 5 3 2 2 2 1 3 3 1 2 2 2 2 2 5 7 7 7 8 3 4 7 11 13 13 12 10 8 10 13 14 12 12 9 5 6 7 9 13 13 13 17 18 15 12 12 15 16 16 18 20 21 21 18 17 17 15 14 12 12 12 12 13 14 14 13 12 10 10 11 11 11
4 3 5 6 2 7 12 10 5 3 5 6 4 3 4 3 3 3 3 3 3 1 2 2 2 2 2 2 4 4 6 8 8 8 8 9 11 11 10 10 9 8 8 10 12 13 14 10 4 6 8 10 13 12 14 18 16 12 12 12 14 16 19 22 22 21 20 17 16 17 16 13 12 12 12 13 13 13 13 11 10 9 10 10 9 9
3 5 4 3 1 7 10 7 4 5 3 3 2 2 2 3 3 1 0 0 1 1 1 2 2 1 0 1 2 4 8 11 10 11 12 11 10 10 10 10 10 9 10 10 10 11 11 8 5 6 8 10 13 13 15 18 16 12 13 16 17 18 22 24 23 22 20 18 18 18 17 15 14 13 13 13 12 11 11 10 10 9 9 9 8 7
2 3 2 0 2 5 5 4 6 5 3 3 3 4 1 1 2 3 1 2 1 3 1 1 1 2 0 2 2 5 8 9 9 9 11 11 11 12 11 11 11 11 11 10 9 8 9 9 8 7 7 11 15 16 15 17 18 15 15 18 18 19 23 24 24 23 21 20 19 17 17 18 15 13 12 12 11 12 11 10 10 8 8 8 6 7
2 3 1 2 4 3 1 2 4 0 2 4 4 4 3 1 2 2 1 1 1 3 1 1 1 2 1 2 3 5 7 7 7 7 8 10 12 12 11 12 12 12 11 9 9 8 7 10 12 11 10 10 13 14 15 17 19 18 16 16 18 20 24 24 23 22 20 20 19 17 18 19 16 14 12 10 11 12 12 11 10 8 7 7 7 9
2 3 2 2 2 1 1 3 4 2 1 1 1 3 3 2 2 2 1 2 2 3 1 1 0 2 3 1 3 5 6 5 5 6 7 9 10 10 12 13 13 14 13 13 14 12 8 8 10 15 15 10 10 12 14 18 20 20 18 16 17 20 23 23 22 20 19 20 19 17 18 18 16 15 12 10 10 11 11 10 9 8 7 7 9 12
1 3 2 1 1 1 1 1 2 3 2 1 2 3 0 1 1 2 1 1 2 3 1 1 1 2 2 1 2 4 5 3 3 4 4 7 8 8 10 10 11 14 16 16 15 10 6 4 7 16 18 13 11 10 12 17 18 19 18 15 15 18 21 22 21 20 19 19 19 17 17 17 16 15 13 11 10 10 9 9 9 8 8 8 9 12
2 2 2 0 1 1 1 0 1 2 3 2 4 4 2 1 0 1 1 1 1 2 2 2 3 1 1 1 1 2 3 3 3 4 5 7 8 7 7 9 10 12 14 16 14 8 6 7 9 14 16 14 14 13 12 14 15 16 14 13 14 17 19 20 20 21 20 19 19 18 17 17 16 15 14 12 10 9 9 9 9 8 8 9 10 10
2 2 3 2 1 1 1 0 1 1 1 1 2 3 2 2 2 3 4 1 1 1 1 2 3 1 3 1 1 2 2 4 5 6 7 8 9 9 8 10 12 13 12 14 14 11 11 11 10 11 12 11 13 15 14 13 14 15 13 12 14 17 17 18 20 20 20 19 19 18 18 18 16 15 14 13 11 10 9 9 9 8 9 10 10 9
2 2 2 2 1 1 0 1 1 1 1 2 1 1 0 1 2 4 5 3 2 1 1 0 2 1 2 1 2 3 4 6 7 8 9 11 12 12 12 11 12 13 11 12 13 12 11 9 6 7 10 9 8 13 18 18 14 13 13 14 16 18 18 18 19 19 19 19 19 19 19 18 16 16 15 13 11 10 9 9 9 8 8 9 10 9
2 1 2 2 1 1 1 2 3 1 1 3 4 3 1 1 0 1 2 2 3 3 2 2 3 1 2 2 3 5 7 8 9 10 12 14 14 15 15 14 14 13 11 10 8 6 6 6 5 5 8 10 10 13 17 18 12 7 9 13 16 18 18 17 16 17 18 18 18 19 19 17 17 17 16 14 12 11 10 10 9 8 8 9 10 10
3 1 2 3 2 2 2 2 3 2 1 1 2 2 2 1 2 1 0 1 2 2 1 3 3 2 2 2 4 7 8 9 11 12 13 14 15 15 15 16 16 15 13 11 8 6 5 6 7 6 6 7 8 8 6 9 11 10 10 13 16 17 16 16 16 17 18 18 18 18 18 17 18 18 16 15 13 11 11 11 10 8 8 9 10 10
2 1 2 4 5 5 5 3 2 2 2 1 2 3 4 4 1 1 1 2 3 2 2 3 2 3 3 4 5 7 8 9 11 13 14 15 15 15 15 16 16 16 14 12 10 10 8 7 8 7 5 4 2 1 6 9 13 14 14 15 15 15 15 16 17 17 18 19 19 18 16 18 20 18 16 15 13 12 12 12 11 9 8 10 10 10
2 2 2 2 2 3 2 2 0 0 2 1 2 4 5 4 2 0 2 2 2 4 3 1 2 6 7 6 6 8 8 9 10 12 14 15 16 16 15 16 17 16 15 13 11 11 11 10 10 8 7 7 6 5 10 14 16 16 16 16 15 14 15 15 16 17 19 20 19 17 16 18 20 19 17 15 13 13 13 12 10 9 8 8 9 9
2 3 3 4 5 3 2 3 2 3 4 2 2 4 6 6 2 1 1 1 1 4 4 2 5 9 9 6 7 9 8 8 9 11 13 15 15 15 17 18 19 17 16 14 13 12 13 13 12 12 12 11 10 10 12 14 15 15 15 13 13 13 13 12 13 15 16 16 16 15 14 15 17 18 18 15 13 14 13 12 11 9 7 7 6 7
3 2 3 3 6 6 4 3 5 7 6 5 5 5 6 7 5 3 2 2 2 1 1 7 11 10 7 6 8 9 8 9 11 12 14 15 13 15 20 21 19 18 17 16 16 16 15 14 13 14 14 12 11 12 13 13 12 11 10 10 10 11 9 9 11 12 12 13 13 12 11 11 11 14 18 16 15 15 14 12 11 10 7 6 5 6
3 3 2 3 5 7 6 3 3 6 7 6 8 7 6 8 9 8 6 3 2 3 6 12 12 8 6 6 8 9 10 13 14 14 15 15 14 16 20 20 19 19 18 18 18 16 15 15 13 13 14 14 13 13 13 13 12 11 11 9 8 10 11 11 12 12 11 12 13 12 11 11 11 13 18 18 16 16 15 13 12 10 9 6 5 5
2 2 1 2 4 5 6 4 2 4 7 8 9 7 6 7 9 8 7 5 5 8 10 12 12 8 5 6 10 12 13 15 15 15 16 16 15 17 19 18 18 19 19 19 20 17 16 17 16 14 16 16 14 12 12 12 12 12 12 10 8 9 11 11 11 11 10 10 11 12 13 12 12 14 17 19 17 17 17 15 11 10 10 9 7 6
2 2 1 2 3 2 3 4 2 2 6 9 9 9 8 5 5 5 4 4 2 8 11 10 7 5 4 8 13 14 15 16 16 16 16 16 16 18 19 18 17 19 20 19 20 22 20 18 18 17 17 16 15 15 15 14 14 14 13 11 9 9 9 8 9 8 6 6 8 11 12 12 11 12 13 15 14 13 15 15 10 9 11 11 10 8
1 4 3 1 2 2 2 3 2 1 3 4 5 6 6 4 2 3 4 4 2 4 7 6 5 6 8 11 13 12 13 15 15 16 16 17 18 20 21 20 19 20 21 18 19 23 22 20 21 20 17 16 17 18 19 17 15 15 14 13 12 10 9 9 9 8 6 4 5 7 11 11 10 9 9 11 11 10 11 12 10 10 11 12 11 10
2 4 3 1 1 2 1 3 1 3 4 1 4 4 3 3 3 5 6 7 4 4 6 7 8 9 8 9 12 13 13 14 17 19 19 20 21 21 23 24 24 25 24 22 22 24 23 23 25 22 18 19 20 20 20 17 15 14 13 12 12 11 11 11 11 9 8 6 6 6 7 8 7 7 7 9 11 11 12 12 11 11 11 11 12 12
4 4 3 1 2 2 1 2 1 3 1 2 4 5 4 3 5 8 8 10 7 9 13 12 10 11 12 12 16 20 20 20 22 22 20 22 25 28 28 29 29 30 30 28 27 27 26 26 26 23 20 22 23 22 20 18 15 14 14 13 13 13 13 12 12 11 9 7 6 6 6 7 6 6 7 8 9 11 12 11 11 11 11 11 12 13
4 4 3 2 1 2 2 2 1 2 2 2 3 6 6 4 3 4 6 9 9 5 13 13 10 13 16 17 19 23 26 27 26 23 19 20 24 30 32 31 30 31 32 30 28 29 31 30 29 26 24 24 24 23 22 21 18 15 14 15 15 15 16 16 15 15 13 10 8 7 6 5 5 5 6 7 9 10 10 10 10 10 10 11 12 13
3 3 3 2 1 2 3 3 2 2 2 2 3 5 5 4 5 3 2 5 8 5 10 13 11 12 15 18 22 24 26 27 23 17 16 18 22 27 30 30 29 29 29 27 25 26 30 32 31 30 28 27 26 24 24 24 22 18 17 17 15 12 11 11 12 13 12 9 8 8 6 4 3 4 5 6 7 9 9 10 11 11 11 12 12 13
4 2 1 2 1 1 3 4 2 2 2 2 4 5 5 5 6 4 0 3 5 6 9 13 12 12 14 17 18 17 16 16 11 8 12 17 22 26 27 25 25 24 23 23 20 20 22 25 27 27 27 28 29 26 24 24 22 21 21 22 21 18 15 14 14 13 11 9 7 6 5 4 3 3 4 5 6 7 8 9 10 11 12 12 13 14
8 5 3 3 2 1 2 3 2 1 2 3 6 8 9 8 5 3 1 2 3 5 10 15 15 14 13 12 9 7 7 8 5 5 12 18 22 24 23 21 20 18 18 18 16 15 17 19 21 22 23 25 25 23 21 20 21 22 23 24 24 24 24 23 21 18 16 14 13 11 10 8 7 5 4 3 2 3 4 5 7 9 11 13 14 15
8 5 4 3 2 1 2 3 2 2 3 4 8 11 12 9 2 2 1 2 5 8 11 14 16 13 10 8 7 4 4 6 8 10 15 19 22 23 23 23 22 20 19 17 15 15 15 15 16 18 20 22 23 20 16 14 16 20 21 21 22 24 24 23 21 19 18 16 14 13 12 12 11 10 9 9 8 6 4 2 2 3 6 8 11 13
4 4 3 3 2 3 3 3 3 2 2 5 11 14 12 7 0 2 0 1 7 12 13 14 15 12 8 8 9 9 9 16 21 20 20 21 22 23 24 25 25 24 24 23 20 17 16 15 16 18 19 20 20 19 16 11 11 14 15 14 17 19 19 17 15 14 14 13 13 13 12 12 11 11 11 11 11 9 8 6 5 4 3 2 3 4
3 3 3 2 2 2 2 2 2 3 3 10 16 14 9 3 1 1 3 2 5 12 14 14 14 12 10 14 20 22 23 24 25 23 22 22 23 24 24 25 25 25 25 24 22 20 19 18 18 19 19 18 16 16 15 12 11 12 10 9 13 15 13 11 10 9 8 8 8 9 9 10 9 9 9 9 9 8 8 7 7 7 6 6 5 5
3 1 2 2 1 1 2 3 2 2 4 15 16 8 5 4 1 1 4 3 8 15 16 14 14 18 22 26 29 30 27 24 23 24 24 23 23 24 24 24 24 24 23 22 21 19 18 18 17 17 17 16 15 14 13 11 11 10 9 9 11 11 9 8 7 6 6 5 4 4 5 5 5 5 5 4 4 5 5 5 5 5 5 5 5 5
5 2 2 1 2 2 3 3 2 1 7 13 9 4 5 6 2 2 5 9 13 16 17 16 18 25 33 35 32 30 28 26 25 25 24 23 23 23 23 22 21 21 20 20 20 18 18 18 17 16 15 14 13 12 11 10 10 8 7 9 9 7 6 5 4 4 4 3 3 4 3 3 3 3 3 4 4 5 5 5 6 6 6 6 6 6
5 4 5 4 4 5 5 4 3 5 8 11 12 11 11 11 10 11 14 16 17 17 18 20 22 28 33 34 32 31 29 27 25 23 22 22 22 21 21 20 19 19 19 18 18 17 17 17 16 15 14 14 13 12 10 10 8 7 6 7 7 6 5 5 4 3 3 3 3 3 3 4 4 5 5 6 6 7 7 8 8 8 9 9 9 9
4 4 4 4 5 7 9 9 7 8 11 14 15 15 16 17 18 19 21 22 21 21 23 25 27 28 29 30 31 30 27 25 23 22 20 19 19 18 18 17 16 16 16 16 16 16 15 15 15 14 14 14 13 12 10 9 8 6 6 5 5 5 5 5 5 4 4 4 4 4 4 4 5 5 6 7 7 8 9 9 10 10 10 10 10 10
5 5 4 4 3 4 5 7 7 7 11 13 16 18 20 21 22 24 25 25 24 25 26 27 28 27 26 26 27 27 24 21 19 19 18 17 16 15 14 14 14 14 14 14 14 14 14 14 15 15 14 13 12 11 10 9 8 7 6 6 5 5 4 4 4 4 4 3 3 3 4 4 5 5 6 7 7 8 9 10 11 11 12 12 12 11
4 4 4 6 6 4 5 5 5 8 10 11 13 17 20 22 25 26 27 27 27 27 27 26 26 25 23 23 23 22 20 16 14 15 15 14 14 13 12 12 12 12 12 13 13 13 13 15 15 14 14 12 11 10 9 8 7 7 6 5 4 4 3 3 3 3 3 3 3 3 3 3 4 4 5 6 7 8 9 9 10 11 13 13 13 13
3 2 3 6 7 7 7 5 5 8 9 8 10 14 17 20 23 24 25 25 24 23 22 20 19 19 18 18 17 16 16 14 12 11 11 11 12 12 11 11 10 10 11 11 11 11 13 13 13 13 12 11 10 9 9 8 7 7 7 6 5 4 4 4 4 4 4 4 4 4 4 4 5 5 5 6 7 8 9 10 10 11 12 13 14 14
3 4 4 5 6 6 5 4 4 4 6 5 7 11 14 17 20 21 20 19 18 17 16 16 16 15 14 13 12 11 13 13 12 11 11 11 10 10 10 9 9 9 9 10 10 11 12 12 11 11 10 10 9 9 9 9 8 8 8 7 6 6 5 5 5 4 4 4 4 4 4 4 5 5 5 6 6 7 8 10 12 12 12 12 13 14
3 2 1 2 5 6 7 8 7 7 8 8 10 12 14 15 16 17 16 15 13 13 13 14 15 14 13 11 9 7 9 11 11 10 10 10 8 8 8 8 8 8 8 9 9 10 10 10 10 10 9 9 9 10 10 9 9 9 9 8 7 6 6 6 5 5 5 4 4 4 4 4 4 5 5 6 6 6 6 6 8 11 12 12 12 13
Wind_Direction
177 174 196 207 184 163 180 196 200 182 148 137 171 235 248 255 269 230 261 264 215 277 283 276 282 278 275 281 16 333 245 206 210 205 203 202 200 204 209 212 212 210 212 210 205 201 199 205 211 215 217 220 223 229 228 213 197 199 202 199 199 201 199 196 193 195 197 190 185 183 180 176 172 168 169 172 174 178 181 183 185 187 193 200 206 212
176 207 216 194 164 160 178 182 166 148 164 196 221 250 262 245 265 247 257 274 211 229 263 257 274 271 266 281 342 319 251 209 209 205 203 203 204 209 212 214 216 214 213 211 208 205 202 205 213 219 221 224 230 232 227 212 197 198 203 203 202 199 196 197 198 201 201 193 187 184 178 175 173 168 168 173 176 179 183 185 188 191 198 204 208 210
187 224 218 182 160 129 100 141 156 155 176 202 214 246 264 251 289 255 248 296 220 213 253 246 264 275 278 297 302 273 249 228 218 212 208 203 204 210 211 211 211 212 212 212 209 206 205 207 212 218 221 225 229 228 222 208 196 196 200 201 204 201 196 195 199 205 204 191 183 181 176 174 174 170 169 173 176 181 185 189 193 197 202 206 206 205
197 238 213 174 157 130 103 136 150 149 179 195 205 232 254 217 327 257 231 38 182 222 268 279 280 281 282 294 252 230 250 269 248 235 224 212 208 210 210 209 206 206 209 210 208 206 206 207 211 218 221 221 220 213 207 197 193 203 204 199 202 204 198 195 199 204 201 185 176 174 172 171 173 172 169 172 179 183 187 192 197 201 203 203 200 195
212 249 144 149 163 165 153 145 157 187 222 212 213 227 243 204 224 242 276 355 269 237 246 257 270 269 269 286 249 214 253 277 261 242 231 222 218 216 216 214 211 211 210 208 207 205 205 205 210 216 220 223 219 203 196 192 195 209 210 199 202 205 198 197 200 200 194 183 175 170 168 171 173 174 175 176 180 183 186 191 195 198 196 192 189 188
222 168 137 138 170 183 173 179 187 201 231 242 215 216 222 221 225 226 188 346 288 253 173 238 265 241 224 272 259 264 285 283 261 231 227 224 220 220 220 218 217 217 212 210 208 202 202 203 208 215 221 225 222 208 196 192 195 208 210 204 208 207 199 200 201 196 190 185 179 173 170 173 174 177 180 180 182 183 185 186 188 188 185 183 181 182
213 166 161 156 165 177 188 209 198 190 221 269 219 206 211 220 225 204 162 207 262 284 90 317 280 269 288 261 244 295 290 275 254 228 227 224 220 220 221 220 219 216 212 213 210 202 203 207 210 217 223 225 226 218 204 193 194 203 209 208 211 211 205 204 200 192 188 184 181 178 176 178 180 181 182 181 183 184 183 181 181 181 178 178 179 178
145 157 168 164 161 167 198 220 194 178 196 262 200 186 193 207 213 191 183 208 246 309 288 207 247 264 282 264 228 306 286 266 234 227 233 223 221 222 224 226 224 218 211 207 209 214 216 216 218 220 225 227 228 225 216 205 198 199 209 212 212 213 208 203 197 189 186 182 178 177 179 183 184 183 184 184 182 181 182 180 178 178 177 177 177 175
137 173 178 166 166 187 208 211 173 172 203 251 167 167 179 192 197 181 185 209 222 281 259 175 170 237 260 262 347 337 296 293 21 18 298 227 223 223 226 228 221 216 205 190 202 217 222 223 223 225 230 230 230 230 222 214 208 204 211 212 212 212 205 199 193 183 179 178 175 174 176 181 182 182 187 188 182 179 181 181 179 179 178 177 175 172
94 202 192 166 169 203 209 188 161 178 208 205 135 131 124 131 132 158 195 199 171 246 251 164 178 244 270 273 301 359 326 331 11 20 20 233 226 217 195 158 173 190 190 188 203 216 225 232 232 232 234 232 234 230 207 203 214 218 218 215 213 210 201 195 188 176 174 173 172 173 173 179 182 181 185 186 182 181 181 182 181 178 176 176 175 172
31 203 182 179 198 208 200 177 169 185 184 110 132 128 96 97 92 121 168 160 196 244 241 164 194 242 270 288 294 342 347 343 342 352 11 195 174 121 105 107 110 133 154 168 190 203 212 221 227 236 229 227 233 218 189 191 207 218 223 219 215 210 200 194 184 173 172 170 171 174 172 178 182 179 183 187 184 183 183 184 181 176 176 177 178 177
352 106 159 218 217 177 153 169 172 195 192 117 150 147 126 134 127 128 115 151 228 250 129 159 204 224 238 256 38 332 338 343 317 312 312 225 159 112 104 116 110 115 133 134 121 109 102 123 202 257 236 221 215 197 187 188 199 216 228 220 212 206 197 192 179 171 171 167 168 170 171 177 180 176 183 193 192 188 186 185 180 176 177 179 181 181
259 228 252 269 216 183 183 188 141 146 208 208 190 187 198 177 154 191 190 184 241 251 102 151 202 216 239 42 32 341 338 346 328 299 268 228 149 125 120 123 122 131 148 151 140 129 144 205 232 240 226 207 192 186 193 192 199 217 234 224 207 200 191 182 174 174 173 168 164 165 166 171 176 175 177 189 197 195 188 184 182 179 177 179 180 178
230 241 235 255 231 194 192 210 203 172 185 190 184 188 192 169 159 189 183 204 264 255 122 131 183 229 236 81 25 346 345 355 359 353 223 191 152 140 133 130 137 147 158 173 179 181 183 188 213 214 207 198 181 178 193 197 201 215 233 226 203 193 187 178 174 177 177 173 170 171 170 164 169 178 178 183 193 194 186 182 183 180 174 174 170 167
218 259 203 189 199 180 188 215 219 146 162 182 175 182 194 189 189 202 202 216 252 250 107 139 179 219 197 79 16 11 34 34 43 77 112 138 143 141 135 134 143 141 136 161 178 171 160 151 149 191 198 188 173 174 188 197 206 217 225 220 198 191 188 178 174 177 177 176 174 175 174 166 168 179 181 183 187 189 185 182 179 172 167 165 154 152
214 268 233 203 178 169 184 199 151 126 151 171 152 179 225 223 179 147 129 158 259 229 140 183 229 284 184 100 36 65 62 48 54 83 97 108 118 119 123 128 129 127 118 123 135 127 124 130 147 186 188 172 172 180 188 196 207 211 210 206 197 192 187 179 177 177 173 171 170 171 173 173 173 173 175 179 184 191 189 181 172 165 162 158 147 152
188 262 263 245 211 188 196 178 157 182 181 135 181 194 208 280 130 124 112 61 332 239 189 166 260 307 239 160 114 77 66 55 47 66 86 91 92 94 103 116 119 121 113 111 117 103 99 125 150 180 187 172 178 188 197 200 202 205 208 203 194 187 184 183 181 178 175 173 172 171 174 177 175 171 171 175 183 190 186 173 164 162 160 157 156 165
206 259 286 192 195 200 275 159 135 129 137 140 194 179 136 75 90 114 176 105 196 231 209 120 278 285 238 162 122 79 64 63 49 52 74 81 83 87 93 103 109 110 107 109 110 95 99 131 149 173 190 192 187 188 201 207 204 207 211 203 192 185 185 187 184 180 181 181 177 172 174 177 175 171 171 174 179 179 173 167 162 161 160 156 159 162
207 261 280 200 196 57 22 158 123 79 113 183 191 144 139 201 174 162 194 172 200 222 219 143 239 257 229 167 98 80 58 59 66 62 73 83 89 96 101 102 105 108 113 120 114 99 103 130 153 174 185 200 194 183 196 206 205 207 208 203 196 189 186 188 187 184 185 186 184 178 176 177 176 174 174 172 173 168 163 164 162 159 159 155 155 156
168 253 248 171 248 19 44 193 171 157 140 71 133 145 26 286 199 181 171 200 216 208 208 188 201 230 207 94 58 61 49 56 91 91 84 85 88 99 106 101 100 106 116 129 125 101 94 132 172 180 181 188 192 192 203 206 203 204 207 206 198 191 190 191 191 189 186 187 188 183 179 180 179 177 175 170 168 164 160 162 163 161 161 160 157 156
127 230 236 190 289 224 159 328 248 190 160 153 171 176 170 118 114 172 126 31 263 193 173 202 212 191 93 78 7 19 51 76 101 114 103 86 89 99 99 91 94 104 117 134 136 115 123 162 186 188 186 192 196 201 210 211 208 208 213 213 200 193 195 196 196 193 189 190 192 190 185 183 181 179 177 172 168 167 165 165 165 162 164 166 162 159
166 185 214 235 267 204 145 90 290 288 258 196 192 193 178 145 154 192 189 136 347 221 165 208 222 122 73 51 337 11 60 86 89 105 97 82 87 90 85 86 95 104 118 136 144 142 152 176 195 189 187 196 197 199 208 213 213 213 214 209 198 196 196 198 200 196 194 194 194 194 189 184 181 181 180 177 174 175 175 172 169 164 165 168 165 162
149 130 188 223 284 282 254 82 82 17 83 108 73 44 90 147 174 211 215 177 144 167 101 177 241 113 67 20 57 62 75 79 79 91 90 83 86 86 84 89 97 104 113 127 141 150 159 178 194 176 181 197 201 205 208 204 202 210 214 203 194 195 195 198 203 202 200 200 196 194 191 186 184 182 181 181 180 180 180 177 172 167 166 169 169 167
152 141 166 183 349 309 240 98 91 87 111 97 57 40 24 258 220 243 249 164 157 163 143 192 220 153 81 52 72 82 85 79 75 82 88 89 89 86 88 93 97 101 101 102 113 127 147 161 154 152 178 193 208 221 215 201 191 191 205 202 196 196 197 199 206 206 204 204 199 193 190 189 186 182 181 183 182 181 182 179 174 169 169 172 172 171
184 192 156 158 137 141 175 162 146 150 125 64 48 19 359 62 118 182 129 138 184 179 167 214 218 115 99 115 98 89 85 76 68 73 81 85 84 83 87 93 98 101 98 93 93 95 110 135 140 150 166 177 207 236 220 192 192 178 176 193 197 197 197 200 204 204 205 206 200 195 193 190 186 184 183 184 181 180 180 176 170 167 171 174 174 175
167 171 156 176 178 178 177 177 184 160 128 90 55 19 13 42 87 204 136 173 211 181 159 223 204 118 127 147 126 104 87 74 67 68 72 73 76 78 80 88 96 101 101 100 101 106 110 109 114 128 133 127 168 344 86 138 178 177 171 185 192 191 193 198 199 200 203 204 200 196 194 188 188 189 185 181 179 178 175 170 165 165 170 174 176 180
112 56 47 99 146 188 168 118 124 119 127 132 18 16 15 15 345 217 152 189 190 154 169 253 136 138 153 161 136 105 83 74 70 67 68 69 71 75 78 87 96 100 104 110 114 118 117 109 104 103 101 108 111 104 120 144 163 167 169 176 177 177 183 188 193 197 199 200 199 197 196 195 196 193 182 178 179 175 169 164 161 161 165 169 175 180
116 69 34 54 63 33 33 91 85 70 95 91 36 22 16 11 359 167 153 331 104 155 189 187 147 150 154 149 121 101 89 82 72 68 73 75 76 84 89 94 99 101 106 114 118 115 110 105 103 100 97 103 108 113 129 148 159 163 168 171 174 180 184 180 187 199 200 196 193 192 197 209 209 191 178 178 180 174 170 167 164 161 160 158 162 173
121 75 23 65 69 50 50 93 98 88 90 78 62 50 30 31 47 78 66 327 293 261 181 148 147 141 125 107 92 91 94 88 80 79 85 85 85 93 96 94 94 93 97 102 101 102 104 100 99 101 105 112 117 116 121 134 146 152 157 164 169 174 177 175 183 198 202 195 196 194 199 221 222 190 180 183 182 177 175 175 172 169 163 153 145 160
117 89 53 94 74 49 41 50 100 104 103 77 60 58 61 69 73 73 70 59 74 93 112 124 122 96 75 86 85 85 91 91 87 84 82 80 78 83 87 87 84 84 90 94 92 96 108 108 102 103 110 118 125 125 121 119 119 122 134 144 147 150 161 172 180 189 194 194 200 204 204 219 224 202 191 188 184 182 181 181 181 182 180 171 151 157
32 112 122 108 80 42 29 30 52 107 108 87 61 48 55 76 79 69 57 47 71 103 111 109 102 81 65 92 94 90 89 88 84 79 75 74 76 80 81 80 78 81 86 90 93 100 109 110 107 103 102 105 112 121 125 123 119 120 128 133 129 137 151 163 173 184 196 202 206 207 205 209 218 216 204 193 189 186 180 176 178 184 191 189 179 175
28 123 147 92 109 83 23 36 29 62 105 92 58 25 17 38 68 65 46 18 62 121 122 114 105 103 112 107 96 87 85 83 80 77 77 75 76 79 79 74 73 79 79 79 91 101 104 106 108 102 96 97 101 105 109 113 116 117 118 122 127 133 140 151 162 168 179 199 205 206 207 208 215 224 218 206 199 184 171 173 180 189 197 199 194 192
81 125 123 79 126 139 30 23 7 302 146 108 35 358 345 349 47 83 48 4 353 140 140 138 127 124 129 118 100 87 83 82 81 81 82 82 80 80 80 75 73 77 74 66 81 98 102 104 106 101 97 102 106 106 105 107 111 110 105 106 114 120 123 133 148 155 154 161 180 196 207 213 218 227 230 225 219 199 186 198 210 206 202 203 203 204
100 107 112 98 128 132 9 353 313 195 180 117 7 341 321 345 58 89 58 20 27 105 108 111 124 126 124 116 107 99 89 83 85 87 86 87 87 83 82 80 79 83 78 65 71 92 103 104 103 102 102 105 107 107 105 105 107 108 106 104 108 112 113 116 125 133 136 141 144 153 173 186 202 218 220 217 214 203 200 210 213 207 207 209 209 212
127 106 103 95 100 113 39 350 161 166 145 72 37 11 358 14 63 82 62 31 43 105 110 108 118 118 111 108 107 105 98 90 86 83 83 87 89 89 87 84 83 86 84 74 70 81 93 98 102 106 106 105 107 110 109 107 107 107 108 109 108 109 111 112 114 115 120 134 146 152 161 168 182 200 200 197 200 200 202 206 207 208 214 218 217 219
135 121 107 81 69 131 107 26 84 112 59 83 58 16 4 356 16 61 62 28 18 91 121 117 112 111 112 112 108 107 104 96 83 73 75 85 91 92 92 89 85 85 85 81 75 76 82 88 93 100 102 100 103 106 106 108 112 112 108 106 105 103 103 106 105 105 110 116 119 129 144 161 183 198 198 195 199 204 208 210 212 217 220 222 222 223
117 131 125 97 44 121 109 75 94 139 109 82 37 5 360 339 329 337 61 34 15 47 116 120 115 113 115 113 113 113 106 94 78 59 65 86 95 96 95 92 90 87 84 81 76 74 79 83 86 92 97 98 98 99 100 102 107 110 108 105 107 107 108 106 96 91 98 100 92 96 108 124 177 209 216 213 214 220 224 224 228 232 230 227 228 229
65 65 113 115 84 115 118 115 131 159 124 52 358 341 338 327 310 294 263 51 34 57 103 115 114 116 121 120 124 126 109 90 72 47 69 92 101 101 99 97 95 92 90 87 82 77 78 80 84 88 91 92 92 93 96 99 103 105 102 99 100 102 102 101 93 86 90 94 86 86 96 108 141 193 221 228 230 234 236 235 236 238 237 236 238 240
43 37 36 80 109 130 123 121 115 107 90 24 339 327 331 336 317 265 234 75 71 88 107 115 117 121 126 124 128 137 107 86 85 91 95 98 98 98 100 101 100 99 100 97 92 84 75 73 79 84 86 85 84 82 86 93 99 102 100 97 97 96 93 91 89 87 88 87 86 87 90 92 97 107 123 143 168 200 221 226 227 230 234 236 240 243
32 30 35 56 78 82 92 98 87 78 69 14 333 322 329 343 343 209 194 118 134 137 129 127 128 128 128 117 100 76 75 112 136 132 113 102 95 93 94 94 94 95 95 93 91 88 83 78 76 76 75 74 71 68 70 79 89 93 94 95 96 93 89 86 85 86 87 87 86 86 85 83 85 87 88 89 87 85 86 101 155 212 228 233 236 240
27 30 45 68 59 44 67 92 89 87 64 347 326 324 331 337 287 183 300 107 141 145 142 136 131 129 130 119 99 79 93 121 127 123 113 105 100 98 95 91 90 89 86 85 85 87 87 84 77 73 71 69 67 64 61 60 72 81 84 91 93 88 83 81 82 84 86 88 88 87 85 81 77 73 71 70 68 64 62 62 57 46 27 339 290 271
17 25 33 43 30 28 59 86 95 116 52 341 325 324 341 348 202 78 356 350 145 146 142 134 130 130 123 114 112 111 115 120 123 121 117 113 110 106 101 97 94 91 87 83 81 79 78 77 73 70 70 70 70 68 60 53 59 68 72 83 86 82 78 76 74 73 72 75 78 79 80 78 74 70 66 61 56 51 48 47 43 37 34 29 20 6
358 26 67 48 16 33 77 58 72 133 0 343 329 323 8 15 325 345 8 52 128 139 136 126 127 133 126 118 117 121 125 127 129 128 126 122 116 111 107 102 97 92 87 81 74 68 66 66 64 62 62 61 64 66 63 59 60 61 64 72 75 74 72 68 63 56 46 39 38 41 49 53 54 54 50 42 34 26 21 21 19 15 14 13 8 358
6 6 105 64 335 359 66 62 44 347 352 359 5 45 49 28 36 108 83 92 112 127 127 118 122 131 130 126 126 128 129 130 130 130 127 123 118 113 108 103 97 90 83 75 68 60 55 53 52 52 52 50 49 51 51 52 53 51 55 64 64 62 59 54 49 42 22 5 358 355 352 350 347 342 337 335 333 331 329 325 325 325 324 323 323 322
38 63 88 70 51 60 71 75 64 46 39 42 55 68 67 65 83 106 108 101 101 113 122 121 122 127 128 128 129 130 130 131 130 129 126 122 117 112 107 101 93 85 78 71 66 58 50 47 45 42 41 40 38 36 35 35 36 33 40 49 47 40 37 31 24 16 357 341 339 336 332 329 323 316 313 310 307 305 303 301 301 301 301 301 301 299
64 94 98 84 93 87 67 54 50 56 61 64 68 71 74 79 88 99 103 99 100 112 123 125 124 126 128 128 129 130 131 132 131 128 124 118 114 109 103 96 88 81 74 68 64 56 46 42 38 34 32 30 28 27 25 23 21 19 24 29 24 18 17 14 4 352 340 333 329 324 323 321 314 311 310 307 304 302 299 296 294 292 293 293 292 291
53 69 85 88 110 112 66 41 35 54 68 74 78 79 78 80 85 92 94 95 100 109 117 122 124 126 127 126 125 126 126 126 125 124 120 115 110 106 99 93 87 80 72 65 58 50 39 32 28 26 25 24 23 22 20 15 11 10 13 12 6 3 3 0 354 346 343 338 330 324 319 313 309 308 307 305 303 302 302 302 301 297 293 289 287 285
43 47 61 69 67 72 78 68 62 72 76 81 88 90 88 87 89 91 93 94 99 103 109 116 120 119 119 118 116 116 117 115 115 119 120 117 114 110 104 97 87 76 67 58 49 39 29 24 23 22 21 21 21 21 19 18 17 18 20 20 16 13 11 9 8 13 19 20 16 5 350 335 325 319 310 304 301 297 295 295 295 295 295 293 291 290
345 19 66 88 88 79 82 101 113 94 81 80 93 101 103 101 98 96 93 90 90 92 95 101 105 104 106 110 111 111 112 111 112 119 124 124 121 115 106 97 86 73 61 50 40 30 23 19 19 18 17 19 23 25 26 28 31 35 39 41 44 49 53 53 52 50 44 38 29 16 5 355 345 335 327 321 316 309 304 300 298 298 298 298 297 296
27 96 101 105 107 103 111 150 163 114 93 109 123 122 122 117 109 104 99 92 86 84 84 91 101 104 104 108 113 113 114 117 123 130 131 127 120 111 100 89 76 63 51 38 28 21 17 15 15 15 16 21 27 31 35 39 43 44 43 43 44 46 49 50 50 47 42 34 24 11 2 353 341 335 332 329 325 320 314 309 306 304 302 299 297 296
33 134 188 92 87 108 145 161 149 120 121 139 142 137 136 131 120 115 114 110 105 100 94 97 109 118 119 121 123 123 121 125 133 138 134 126 116 104 90 74 59 47 37 28 19 13 10 12 14 17 22 28 32 35 36 36 36 36 37 42 46 46 45 46 44 43 43 41 36 32 29 21 8 360 356 350 346 342 335 318 305 300 299 295 290 288